Change the Weather History Date:

Wednesday, August 27, 2014

  Actual Average Record
Temperature  
Mean Temperature 73 °F 72 °F  
Max Temperature 77 °F 84 °F 105 °F (1936)
Min Temperature 68 °F 61 °F 46 °F (1967)
Degree Days  
Heating Degree Days 0 0  
Month to date heating degree days 0 0  
Since 1 June heating degree days 14 22  
Since 1 July heating degree days 6 1  
Cooling Degree Days 8 7  
Month to date cooling degree days 259 265  
Year to date cooling degree days 888 925  
Since 1 June cooling degree days 770 866  
Growing Degree Days 22 (Base 50)    
Moisture  
Dew Point 66 °F    
Average Humidity 81    
Maximum Humidity 93    
Minimum Humidity 69    
Precipitation  
Precipitation 0.51 in 0.13 in 1.06 in (1968)
Month to date precipitation 6.88 2.74  
Year to date precipitation 23.99 20.10  
Snow  
Snow 0.00 in 0.00 in - ()
Month to date snowfall 0.0 0.0  
Since 1 June snowfall 0.0 0.0  
Since 1 July snowfall 0.0 0.0  
Snow Depth 0.00 in    
Sea Level Pressure  
Sea Level Pressure 30.07 in    
Wind  
Wind Speed 9 mph (ESE)    
Max Wind Speed 18 mph    
Max Gust Speed 26 mph    
Visibility 10 miles    
Events Rain , Thunderstorm    
T = Trace of Precipitation, MM = Missing Value Source: NWS Daily Summary

Daily Weather History Graph

Daily Weather History Graph

Search for Another Location

Airport or City:

Trip Planner

Search our weather history database for the weather conditions in past years. The results will help you decide how hot, cold, wet, or windy it might be!

Date:

Astronomy

Aug. 27, 2014 Rise Set
Actual Time 6:56 AM CDT 8:13 PM CDT
Civil Twilight 6:27 AM CDT 8:41 PM CDT
Nautical Twilight 5:53 AM CDT 9:15 PM CDT
Astronomical Twilight 5:17 AM CDT 9:51 PM CDT
Moon 8:54 AM CDT (8/27) 9:05 PM CDT (8/27)
Length of Visible Light 14h 14m
Length of Day
13h 17m
Waxing Crescent, 4% of the Moon is Illuminated
Aug 27
Waxing Crescent
Sep 2
First Quarter
Sep 8
Full
Sep 15
Last Quarter
Sep 24
New

Hourly Weather History & Observations

Time (CDT) Temp. Dew Point Humidity Pressure Visibility Wind Dir Wind Speed Gust Speed Precip Events Conditions
12:53 AM 69.1 °F 64.9 °F 87% 30.09 in 10.0 mi East 9.2 mph - N/A   Partly Cloudy
1:53 AM 69.1 °F 64.9 °F 87% 30.08 in 10.0 mi East 9.2 mph - N/A   Scattered Clouds
2:53 AM 69.1 °F 64.9 °F 87% 30.06 in 10.0 mi ESE 8.1 mph - N/A   Scattered Clouds
3:53 AM 69.1 °F 64.9 °F 87% 30.05 in 10.0 mi SE 9.2 mph - N/A   Scattered Clouds
4:03 AM 69.1 °F 64.9 °F 87% 30.09 in 10.0 mi SE 8.1 mph - N/A   Mostly Cloudy
4:17 AM 69.1 °F 64.9 °F 87% 30.09 in 10.0 mi SE 9.2 mph - N/A   Overcast
4:26 AM 69.8 °F 64.4 °F 83% 30.10 in 10.0 mi SSE 8.1 mph - N/A Thunderstorm Overcast
4:36 AM 69.1 °F 66.0 °F 90% 30.12 in 10.0 mi South 8.1 mph - 0.00 in Rain , Thunderstorm Light Thunderstorms and Rain
4:53 AM 69.1 °F 66.0 °F 90% 30.09 in 9.0 mi WSW 3.5 mph - 0.02 in Rain , Thunderstorm Light Thunderstorms and Rain
5:18 AM 70.0 °F 66.0 °F 87% 30.12 in 10.0 mi NNW 9.2 mph - 0.01 in Rain , Thunderstorm Light Rain
5:35 AM 69.1 °F 64.9 °F 87% 30.13 in 10.0 mi NNW 8.1 mph - 0.01 in Thunderstorm Mostly Cloudy
5:53 AM 68.0 °F 64.9 °F 90% 30.08 in 10.0 mi NW 6.9 mph - 0.02 in Rain , Thunderstorm Light Rain
6:01 AM 68.0 °F 64.4 °F 88% 30.12 in 9.0 mi NNW 8.1 mph - N/A Rain Light Rain
6:53 AM 68.0 °F 64.0 °F 87% 30.03 in 10.0 mi North 5.8 mph - 0.07 in Rain Light Rain
7:53 AM 68.0 °F 64.0 °F 87% 30.05 in 10.0 mi SE 4.6 mph - 0.02 in   Mostly Cloudy
8:53 AM 69.1 °F 66.0 °F 90% 30.06 in 10.0 mi SSE 6.9 mph - N/A   Partly Cloudy
9:00 AM 70.0 °F 66.0 °F 87% 30.11 in 10.0 mi SSE 6.9 mph - N/A   Scattered Clouds
9:11 AM 70.0 °F 66.0 °F 87% 30.11 in 10.0 mi SSE 8.1 mph - N/A   Mostly Cloudy
9:53 AM 71.1 °F 66.0 °F 84% 30.09 in 10.0 mi SE 4.6 mph - N/A   Mostly Cloudy
10:53 AM 72.0 °F 66.0 °F 81% 30.12 in 10.0 mi ENE 9.2 mph - N/A   Mostly Cloudy
11:41 AM 71.1 °F 66.0 °F 84% 30.17 in 10.0 mi ENE 8.1 mph - 0.00 in   Overcast
11:53 AM 72.0 °F 64.9 °F 78% 30.12 in 10.0 mi ENE 10.4 mph - 0.00 in   Overcast
12:02 PM 71.1 °F 64.9 °F 81% 30.16 in 10.0 mi ENE 12.7 mph - N/A   Mostly Cloudy
12:53 PM 73.0 °F 66.0 °F 79% 30.10 in 10.0 mi East 11.5 mph - 0.00 in   Overcast
1:53 PM 77.0 °F 66.2 °F 69% 30.12 in 10.0 mi ESE 12.7 mph 19.6 mph N/A   Overcast
2:44 PM 75.0 °F 66.0 °F 73% 30.11 in 10.0 mi ESE 9.2 mph - N/A   Overcast
2:53 PM 75.0 °F 66.0 °F 73% 30.06 in 10.0 mi ESE 10.4 mph - N/A   Overcast
3:02 PM 75.9 °F 66.0 °F 71% 30.10 in 10.0 mi ESE 10.4 mph - N/A   Overcast
3:31 PM 75.9 °F 66.9 °F 74% 30.09 in 10.0 mi East 9.2 mph - N/A   Overcast
3:39 PM 75.0 °F 66.9 °F 76% 30.08 in 10.0 mi ESE 9.2 mph - N/A   Overcast
3:53 PM 75.0 °F 66.9 °F 76% 30.04 in 10.0 mi ESE 10.4 mph 16.1 mph N/A   Overcast
4:53 PM 75.0 °F 68.0 °F 79% 30.02 in 10.0 mi SE 8.1 mph - 0.00 in Rain Light Rain
5:53 PM 72.0 °F 64.9 °F 78% 30.01 in 8.0 mi SE 5.8 mph - 0.02 in Rain Light Rain
6:53 PM 72.0 °F 66.0 °F 81% 30.01 in 10.0 mi ESE 4.6 mph - 0.00 in   Overcast
7:53 PM 73.0 °F 68.0 °F 84% 29.99 in 9.0 mi SE 8.1 mph - 0.01 in Rain Light Rain
8:53 PM 73.0 °F 68.0 °F 84% 30.00 in 9.0 mi SSE 5.8 mph - 0.02 in Rain Light Rain
9:53 PM 72.0 °F 68.0 °F 87% 30.00 in 8.0 mi ESE 9.2 mph - 0.03 in Rain Light Rain
10:53 PM 72.0 °F 69.1 °F 91% 29.97 in 6.0 mi SE 11.5 mph - 0.04 in Rain Light Rain
11:34 PM 72.0 °F 69.1 °F 91% 30.01 in 6.0 mi SE 13.8 mph - 0.05 in Rain Light Rain
11:53 PM 72.0 °F 68.0 °F 87% 29.96 in 8.0 mi SE 16.1 mph 23.0 mph 0.08 in Rain Light Rain